Date,TemperatureHighF,TemperatureAvgF,TemperatureLowF,DewpointHighF,DewpointAvgF,DewpointLowF,HumidityHigh,HumidityAvg,HumidityLow,PressureMaxIn,PressureMinIn,WindSpeedMaxMPH,WindSpeedAvgMPH,GustSpeedMaxMPH,PrecipitationSumIn
2013-2-1,27.1,22.6,15.3,19.0,9.6,3.7,75,57,44,30.08,29.50,24,7,27,0.00
2013-2-2,23.7,18.6,11.8,14.2,7.7,2.5,75,62,47,30.24,30.07,16,3,19,0.00
2013-2-3,28.3,23.0,16.3,16.7,14.4,12.9,87,70,54,30.08,29.74,11,2,14,0.00
2013-2-4,27.2,22.1,15.5,18.0,7.9,-1.0,85,56,30,29.91,29.72,23,6,29,0.00
2013-2-5,27.8,17.5,10.1,10.2,3.7,-0.6,67,55,36,30.06,29.91,13,2,13,0.00
2013-2-6,33.6,23.8,16.3,22.4,13.0,-8.4,88,65,30,30.33,29.97,20,3,20,0.00
2013-2-7,23.2,16.0,11.4,4.9,-2.5,-6.9,56,44,27,30.57,30.32,16,4,16,0.00
2013-2-8,16.7,14.0,10.4,12.8,8.1,-4.6,91,79,38,30.57,29.87,17,4,24,0.00
2013-2-9,19.5,16.1,11.7,17.8,11.6,2.5,93,83,64,30.22,29.80,20,6,25,0.00
2013-2-10,36.1,19.3,7.9,10.5,3.3,-1.6,87,53,24,30.43,30.22,14,2,16,0.00
2013-2-11,23.1,12.5,7.1,20.6,8.9,4.1,91,85,76,30.39,30.07,6,1,7,0.00
2013-2-13,38.5,38.3,38.1,23.4,22.5,21.5,55,53,51,29.81,29.78,11,6,14,0.00
2013-2-14,37.5,37.5,37.5,21.9,21.9,21.9,53,53,53,29.78,29.78,1,1,4,0.00
2013-2-15,42.1,28.8,20.5,27.1,21.8,18.5,92,77,55,29.99,29.86,1,1,4,0.00
2013-2-16,42.1,36.1,32.0,27.1,22.1,19.1,59,56,55,29.95,29.87,5,2,5,0.00
2013-2-17,34.1,26.0,17.5,21.7,16.9,14.5,88,69,60,29.80,29.51,4,3,5,0.00
2013-2-18,27.0,23.1,9.5,5.3,-0.0,-3.1,67,36,29,30.11,29.47,24,9,27,0.00
2013-2-19,41.1,30.7,17.4,35.1,14.0,-3.4,95,53,25,30.17,29.58,14,2,15,0.11
2013-2-20,35.3,29.9,22.9,34.1,22.7,14.8,96,75,59,29.74,29.51,22,7,26,0.04
2013-2-21,26.7,22.0,17.4,18.0,12.8,7.2,85,67,55,30.25,29.73,23,5,24,0.00
2013-2-22,40.9,28.0,11.9,24.3,18.9,9.0,94,70,43,30.46,30.23,10,2,11,0.00
2013-2-23,34.7,31.6,27.8,31.9,28.2,23.2,96,87,77,30.37,30.01,12,1,14,0.00
2013-2-24,33.1,31.1,28.7,31.6,29.8,27.4,96,95,92,30.01,29.80,2,0,2,0.00
2013-2-25,38.6,31.4,23.3,33.3,29.1,22.1,96,91,72,30.27,29.93,6,1,8,0.06
2013-2-26,40.3,34.6,30.9,33.0,30.9,28.2,97,87,73,30.38,30.24,10,1,11,0.24
2013-2-27,33.0,32.1,31.5,29.3,28.9,28.5,89,88,86,30.24,30.18,6,1,8,0.00